Location: Gisborne
(38.6530°S, 178.0040°E)
Time: 19:16:45
(UTC+13:00)

ERBS - Pass Details

Date: 24 January 2019
Orbit: 418 x 432 km, 57.0° (Epoch: 16 February)

Event Time Altitude Azimuth Distance (km) Brightness Sun altitude
Rises 22:31:18 0° 215° (SW) 2,443 7.7 -19.9°
Reaches altitude 10° 22:33:35 10° 205° (SSW) 1,568 6.2 -20.2°
Maximum altitude 22:36:46 32° 139° (SE) 789 3.6 -20.6°
Enters shadow 22:36:59 31° 132° (SE) 793 3.6 -20.7°
